GW4669 Weather Reports


Display with metric or nautical units.
time (UTC)temp
F
wind
direction
speed
MPH
gust
MPH
rain 1hr
in
rain 24hr
in
rain mn
in
humidity
%
barometer
mb
20260510033341 53 111 3.0 5.0 0.00 0.14 0.14 88 1008.1
20260510032838 53 264 2.0 5.0 0.00 0.14 0.14 88 1007.8
20260510032335 53 280 2.0 7.0 0.00 0.14 0.14 89 1007.7
20260510031825 52 179 3.0 6.0 0.00 0.14 0.14 90 1007.4
20260510031320 52 22 1.0 2.0 0.00 0.14 0.14 90 1007.4
20260510030815 52 88 3.0 4.0 0.00 0.14 0.14 91 1007.6
20260510030312 52 112 2.0 3.0 0.00 0.14 0.14 91 1007.5
20260510025810 51 254 0.0 4.0 0.00 0.14 0.14 91 1007.3
20260510025307 51 139 2.0 3.0 0.00 0.14 0.14 91 1007.5
20260510024803 51 134 1.0 4.0 0.00 0.14 0.14 91 1007.5
20260510024301 51 95 1.0 3.0 0.00 0.14 0.14 91 1007.5
20260510023756 51 191 1.0 3.0 0.00 0.14 0.14 92 1007.7
20260510023253 51 134 3.0 7.0 0.00 0.14 0.14 92 1007.5
20260510022750 50 163 1.0 3.0 0.00 0.14 0.14 91 1007.4
20260510022249 50 186 1.0 2.0 0.00 0.14 0.14 92 1007.5
20260510021748 50 123 1.0 3.0 0.00 0.14 0.14 91 1007.1
20260510021247 50 173 2.0 3.0 0.00 0.14 0.14 91 1007.1
20260510020742 50 241 0.0 4.0 0.00 0.14 0.14 91 1007.2
20260510020242 50 174 1.0 3.0 0.00 0.14 0.14 91 1007.2
20260510015739 50 186 3.0 4.0 0.00 0.14 0.14 92 1007.1
20260510015235 50 170 3.0 5.0 0.00 0.14 0.14 92 1007.5
20260510014730 50 157 1.0 5.0 0.00 0.14 0.14 92 1007.2
20260510014228 50 160 3.0 4.0 0.00 0.14 0.14 91 1007.3
20260510013723 50 120 1.0 3.0 0.00 0.14 0.14 91 1007.3
20260510013219 50 184 2.0 2.0 0.00 0.14 0.14 91 1007.3
20260510012719 50 127 2.0 2.0 0.00 0.14 0.14 91 1007.3
20260510012214 50 152 0.0 3.0 0.00 0.14 0.14 91 1007.2
20260510011709 50 222 1.0 3.0 0.00 0.14 0.14 90 1007.0
20260510011205 51 200 1.0 3.0 0.00 0.14 0.14 90 1007.1
20260510010701 51 169 1.0 3.0 0.00 0.14 0.14 90 1007.0
20260510010158 51 159 0.0 2.0 0.00 0.14 0.14 90 1007.2
20260510005655 51 192 0.0 2.0 0.00 0.14 0.14 89 1007.2
20260510005151 51 173 2.0 2.0 0.00 0.14 0.14 89 1007.0
20260510004650 51 180 0.0 3.0 0.00 0.14 0.14 89 1007.0
20260510004147 51 127 0.0 3.0 0.00 0.14 0.14 89 1006.9
20260510003645 52 160 0.0 5.0 0.00 0.14 0.14 88 1006.8
20260510003140 52 184 2.0 4.0 0.00 0.14 0.14 88 1006.8
20260510002635 52 183 2.0 3.0 0.00 0.14 0.14 88 1006.9
20260510002132 53 166 1.0 3.0 0.00 0.14 0.14 87 1007.0
20260510001629 53 175 3.0 3.0 0.00 0.14 0.14 87 1006.9
20260510001128 53 167 1.0 3.0 0.00 0.14 0.14 87 1007.0
20260510000627 53 183 2.0 3.0 0.00 0.14 0.14 87 1006.8
20260510000125 53 202 0.0 3.0 0.00 0.14 0.14 87 1006.4
20260509235621 53 160 0.0 3.0 0.00 0.14 0.14 86 1006.3
20260509235118 54 118 1.0 2.0 0.00 0.14 0.14 85 1006.6
20260509234614 54 130 3.0 6.0 0.00 0.14 0.14 84 1006.5
20260509234112 55 139 1.0 2.0 0.00 0.14 0.14 83 1006.6
20260509233610 55 156 2.0 4.0 0.00 0.14 0.14 83 1006.9
20260509233107 55 300 0.0 4.0 0.00 0.14 0.14 82 1006.7
20260509232603 56 99 1.0 3.0 0.00 0.14 0.14 82 1006.6
20260509232100 56 102 2.0 7.0 0.00 0.14 0.14 81 1006.8
20260509231556 57 110 2.0 3.0 0.00 0.14 0.14 80 1006.8
20260509231054 57 136 3.0 7.0 0.00 0.14 0.14 78 1006.6
20260509230550 57 128 2.0 7.0 0.00 0.14 0.14 77 1006.5
20260509230048 58 136 4.0 8.0 0.00 0.14 0.14 76 1006.8
20260509225543 57 174 2.0 5.0 0.00 0.14 0.14 78 1006.7
20260509225039 57 183 3.0 5.0 0.00 0.14 0.14 77 1006.7
20260509224534 57 164 5.0 9.0 0.00 0.14 0.14 76 1006.8
20260509224031 58 156 2.0 5.0 0.00 0.14 0.14 78 1006.4
20260509223529 57 159 1.0 3.0 0.00 0.14 0.14 78 1006.6
20260509223026 57 196 1.0 5.0 0.00 0.14 0.14 77 1006.7
20260509222522 57 196 1.0 3.0 0.00 0.14 0.14 79 1006.7
20260509222018 57 158 0.0 4.0 0.00 0.14 0.14 78 1006.7
20260509221514 57 176 4.0 8.0 0.00 0.14 0.14 77 1006.6
20260509221010 57 164 1.0 3.0 0.00 0.14 0.14 79 1006.5
20260509220506 57 130 0.0 2.0 0.00 0.14 0.14 80 1006.7
20260509220002 57 155 2.0 3.0 0.00 0.14 0.14 79 1006.9
20260509215458 57 126 1.0 2.0 0.00 0.14 0.14 79 1006.8
20260509214955 57 153 2.0 3.0 0.00 0.14 0.14 78 1006.9
20260509214453 57 80 0.0 2.0 0.00 0.14 0.14 78 1006.9
20260509213949 57 153 3.0 7.0 0.00 0.14 0.14 77 1006.8
20260509213445 57 134 1.0 3.0 0.00 0.14 0.14 78 1006.8
20260509212943 57 188 2.0 3.0 0.00 0.14 0.14 78 1006.9
20260509212440 57 189 3.0 10.0 0.00 0.14 0.14 77 1006.7
20260509211936 57 197 3.0 10.0 0.00 0.14 0.14 77 1006.6
20260509211431 57 168 2.0 11.0 0.00 0.14 0.14 77 1006.9
20260509210928 57 148 7.0 7.0 0.00 0.14 0.14 76 1006.8
20260509210426 57 233 2.0 5.0 0.00 0.14 0.14 76 1006.9
20260509205921 58 137 5.0 10.0 0.00 0.14 0.14 76 1007.3
20260509205420 58 245 2.0 6.0 0.00 0.14 0.14 76 1007.0
20260509204917 58 181 3.0 8.0 0.00 0.14 0.14 76 1007.3
20260509204413 59 164 8.0 8.0 0.00 0.14 0.14 75 1007.1
20260509203910 58 182 2.0 6.0 0.00 0.14 0.14 75 1007.1
20260509203406 58 171 2.0 8.0 0.00 0.14 0.14 76 1007.4
20260509202903 58 194 1.0 7.0 0.00 0.14 0.14 76 1007.3
20260509202359 57 223 1.0 4.0 0.00 0.14 0.14 78 1007.2
20260509201854 57 89 4.0 10.0 0.00 0.14 0.14 78 1007.3
20260509201351 57 178 1.0 4.0 0.00 0.14 0.14 79 1007.4
20260509200848 57 259 1.0 6.0 0.00 0.14 0.14 79 1007.3
20260509200348 56 203 0.0 5.0 0.00 0.14 0.14 79 1007.0
20260509195845 56 136 0.0 7.0 0.00 0.14 0.14 79 1007.2
20260509195345 56 201 3.0 5.0 0.00 0.14 0.14 79 1007.5
20260509194845 56 301 1.0 4.0 0.00 0.14 0.14 80 1007.5
20260509194341 56 211 0.0 2.0 0.00 0.14 0.14 81 1007.5
20260509193838 56 170 3.0 6.0 0.00 0.14 0.14 81 1007.9
20260509193338 56 116 1.0 6.0 0.00 0.14 0.14 82 1007.6
20260509192834 55 114 3.0 4.0 0.00 0.14 0.14 84 1007.8
20260509192330 55 148 2.0 3.0 0.00 0.14 0.14 87 1007.7
20260509191825 54 27 0.0 2.0 0.00 0.14 0.14 88 1007.8
20260509191321 53 16 1.0 2.0 0.00 0.14 0.14 88 1008.0
20260509190817 53 35 2.0 3.0 0.00 0.14 0.14 87 1008.2
20260509190315 54 141 0.0 2.0 0.00 0.14 0.14 87 1008.2
20260509185812 54 6 0.0 1.0 0.00 0.14 0.14 89 1008.1
20260509185308 54 41 0.0 2.0 0.00 0.14 0.14 89 1008.1
20260509184806 53 37 2.0 3.0 0.00 0.14 0.14 89 1008.1
20260509184303 53 72 0.0 3.0 0.00 0.14 0.14 89 1008.2
20260509183759 53 135 0.0 2.0 0.00 0.14 0.14 89 1008.1
20260509183255 53 72 2.0 4.0 0.00 0.14 0.14 89 1008.3
20260509182750 53 146 0.0 3.0 0.00 0.14 0.14 88 1008.3
20260509182248 53 123 0.0 1.0 0.00 0.14 0.14 89 1008.0
20260509181745 52 68 0.0 2.0 0.00 0.14 0.14 89 1008.1
20260509181243 53 44 0.0 2.0 0.00 0.14 0.14 89 1008.3
20260509180739 52 177 0.0 2.0 0.00 0.14 0.14 88 1008.2
20260509180236 51 95 0.0 3.0 0.00 0.14 0.14 89 1008.2
20260509175732 51 199 1.0 4.0 0.00 0.14 0.14 89 1008.1
20260509175229 52 155 2.0 3.0 0.00 0.14 0.14 90 1008.3
20260509174725 51 177 3.0 4.0 0.00 0.14 0.14 90 1008.3
20260509174220 51 223 0.0 3.0 0.00 0.14 0.14 91 1008.2
20260509173717 51 112 0.0 4.0 0.00 0.14 0.14 91 1008.5
20260509173212 50 119 0.0 3.0 0.00 0.14 0.14 91 1008.3
20260509172708 50 157 2.0 2.0 0.00 0.14 0.14 92 1008.5
20260509172205 50 119 0.0 2.0 0.00 0.14 0.14 92 1008.6
20260509171700 50 113 2.0 2.0 0.00 0.14 0.14 92 1008.6
20260509171157 49 145 0.0 2.0 0.00 0.14 0.14 92 1008.9
20260509170654 49 174 2.0 2.0 0.00 0.14 0.14 92 1008.6
20260509170150 49 254 1.0 3.0 0.00 0.14 0.14 92 1008.9
20260509165648 49 201 0.0 3.0 0.00 0.14 0.14 92 1008.6
20260509165144 49 64 2.0 4.0 0.00 0.14 0.14 92 1008.7
20260509164640 49 156 2.0 5.0 0.00 0.14 0.14 92 1008.8
20260509164136 49 104 1.0 3.0 0.00 0.14 0.14 92 1008.9
20260509163634 49 54 1.0 6.0 0.00 0.14 0.14 92 1009.0
20260509163129 49 58 2.0 5.0 0.00 0.14 0.14 93 1009.1
20260509162627 50 201 0.0 2.0 0.00 0.14 0.14 93 1008.9
20260509162123 49 240 2.0 3.0 0.00 0.14 0.14 93 1009.0
20260509161619 49 216 2.0 3.0 0.00 0.14 0.14 93 1009.3
20260509161114 49 72 0.0 2.0 0.00 0.14 0.14 93 1009.1
20260509160610 49 234 2.0 3.0 0.00 0.14 0.14 93 1009.2
20260509160105 49 81 2.0 3.0 0.00 0.14 0.14 93 1009.3
20260509155602 48 82 2.0 3.0 0.02 0.14 0.14 93 1009.4
20260509155058 49 76 2.0 2.0 0.02 0.14 0.14 93 1009.6
20260509154554 49 82 0.0 3.0 0.02 0.14 0.14 93 1009.6
20260509154052 49 94 2.0 3.0 0.05 0.14 0.14 93 1009.5
20260509153549 49 125 3.0 3.0 0.07 0.13 0.13 93 1009.8
20260509153046 48 83 3.0 3.0 0.07 0.13 0.13 93 1009.7
20260509152541 48 143 3.0 7.0 0.02 0.12 0.12 93 1009.9
20260509152039 49 138 2.0 3.0 0.02 0.11 0.11 93 1010.0
20260509151529 48 103 0.0 7.0 0.05 0.11 0.11 93 1009.9
20260509151027 49 55 0.0 2.0 0.02 0.11 0.11 93 1010.0
20260509150524 48 108 3.0 5.0 0.02 0.11 0.11 93 1010.2
20260509150023 48 126 1.0 3.0 0.02 0.11 0.11 93 1010.0
20260509145519 48 215 0.0 3.0 0.02 0.10 0.10 93 1010.1
20260509145019 48 88 2.0 3.0 0.07 0.10 0.10 93 1009.9
20260509144516 48 54 0.0 4.0 0.05 0.10 0.10 93 1010.1
20260509144014 48 120 3.0 7.0 0.02 0.09 0.09 93 1010.1
20260509143510 48 112 1.0 3.0 0.05 0.09 0.09 93 1010.1
20260509143009 48 107 1.0 2.0 0.05 0.09 0.09 93 1009.9
20260509142503 48 223 2.0 5.0 0.05 0.08 0.08 93 1010.2
20260509141959 48 131 2.0 2.0 0.05 0.08 0.08 93 1010.1
20260509141456 48 124 2.0 3.0 0.05 0.07 0.07 93 1010.1
20260509140953 47 154 2.0 3.0 0.05 0.07 0.07 93 1010.1
20260509140449 47 88 0.0 4.0 0.05 0.07 0.07 93 1010.2
20260509135948 47 65 1.0 4.0 0.05 0.06 0.06 92 1010.2
20260509135444 47 121 1.0 2.0 0.05 0.06 0.06 92 1010.1
20260509134942 47 127 1.0 2.0 0.05 0.06 0.06 92 1010.3
20260509134439 47 125 2.0 3.0 0.05 0.05 0.05 92 1010.3
20260509133937 47 91 0.0 2.0 0.05 0.05 0.05 92 1010.2
20260509133433 46 76 1.0 3.0 0.07 0.04 0.04 92 1010.3
20260509132931 46 101 2.0 4.0 0.05 0.04 0.04 92 1010.2
20260509132429 46 95 0.0 3.0 0.00 0.03 0.03 91 1010.2
20260509131926 46 95 0.0 4.0 0.00 0.03 0.03 91 1010.2
20260509131423 46 103 0.0 3.0 0.02 0.03 0.03 91 1010.3
20260509130920 45 112 0.0 2.0 0.00 0.03 0.03 91 1010.3
20260509130414 45 137 2.0 2.0 0.00 0.03 0.03 91 1010.4
20260509125912 45 120 2.0 3.0 0.02 0.03 0.03 91 1010.4
20260509125409 45 102 0.0 2.0 0.02 0.03 0.03 90 1010.6
20260509124905 44 128 3.0 3.0 0.02 0.02 0.02 89 1010.4
20260509124402 44 130 2.0 2.0 0.05 0.02 0.02 89 1010.4
20260509123900 44 143 0.0 2.0 0.02 0.02 0.02 89 1010.3
20260509123357 43 95 0.0 4.0 0.02 0.02 0.02 88 1010.7
20260509122852 43 173 1.0 3.0 0.05 0.02 0.02 88 1010.8
20260509122349 43 99 1.0 3.0 0.02 0.01 0.01 88 1010.7
20260509121846 43 130 0.0 2.0 0.02 0.01 0.01 87 1010.7
20260509121343 43 43 0.0 2.0 0.02 0.01 0.01 87 1010.9
20260509120842 43 114 2.0 5.0 0.02 0.00 0.00 87 1010.9
20260509120339 43 160 0.0 4.0 0.02 0.00 0.00 87 1010.8
20260509115837 43 79 3.0 4.0 0.00 0.00 0.00 87 1010.8
20260509115334 43 111 2.0 3.0 0.00 0.00 0.00 86 1010.8
20260509114831 42 121 1.0 2.0 0.00 0.00 0.00 85 1010.7
20260509114330 42 170 2.0 3.0 0.00 0.00 0.00 85 1010.6
20260509113829 42 163 2.0 2.0 0.00 0.00 0.00 85 1010.8
20260509113325 42 143 1.0 2.0 0.00 0.00 0.00 85 1010.9
20260509112822 41 97 2.0 2.0 0.00 0.00 0.00 85 1010.9
20260509112319 41 38 0.0 1.0 0.00 0.00 0.00 85 1011.1
20260509111816 41 132 0.0 2.0 0.00 0.00 0.00 86 1010.8
20260509111313 41 174 1.0 2.0 0.00 0.00 0.00 86 1010.8
20260509110811 40 95 0.0 2.0 0.00 0.00 0.00 86 1011.0
20260509110307 40 186 0.0 2.0 0.00 0.00 0.00 86 1011.0
20260509105806 39 147 0.0 2.0 0.00 0.00 0.00 88 1010.8
20260509105306 39 146 1.0 2.0 0.00 0.00 0.00 89 1010.8
20260509104759 39 38 0.0 2.0 0.00 0.00 0.00 89 1010.9
20260509104256 39 104 2.0 2.0 0.00 0.00 0.00 89 1010.8
20260509103754 38 111 1.0 2.0 0.00 0.00 0.00 89 1010.8
20260509103251 38 267 1.0 3.0 0.00 0.00 0.00 90 1010.6
20260509102750 38 95 0.0 2.0 0.00 0.00 0.00 90 1010.6
20260509102246 37 95 2.0 3.0 0.00 0.00 0.00 90 1010.6
20260509101743 37 229 0.0 2.0 0.00 0.00 0.00 90 1010.7
20260509101239 37 162 1.0 2.0 0.00 0.00 0.00 90 1010.7
20260509100736 37 139 1.0 3.0 0.00 0.00 0.00 90 1010.6
20260509100234 36 181 2.0 4.0 0.00 0.00 0.00 90 1010.6
20260509095730 36 175 1.0 3.0 0.00 0.00 0.00 90 1010.4
20260509095227 36 184 1.0 2.0 0.00 0.00 0.00 89 1010.4
20260509094725 36 182 0.0 2.0 0.00 0.00 0.00 89 1010.5
20260509094221 37 142 2.0 3.0 0.00 0.00 0.00 89 1010.5
20260509093719 36 17 0.0 0.0 0.00 0.00 0.00 89 1010.5
20260509093216 36 7 0.0 2.0 0.00 0.00 0.00 89 1010.7
20260509092714 36 152 1.0 2.0 0.00 0.00 0.00 89 1010.7
20260509092212 37 170 1.0 2.0 0.00 0.00 0.00 89 1010.6
20260509091710 37 110 1.0 2.0 0.00 0.00 0.00 89 1010.7
20260509091205 36 99 2.0 3.0 0.00 0.00 0.00 89 1011.0
20260509090704 36 106 2.0 3.0 0.00 0.00 0.00 89 1010.7
20260509090201 37 115 0.0 3.0 0.00 0.00 0.00 89 1011.0
20260509085658 37 182 0.0 3.0 0.00 0.00 0.00 89 1010.9
20260509085155 37 140 1.0 3.0 0.00 0.00 0.00 89 1010.9
20260509084652 36 162 2.0 2.0 0.00 0.00 0.00 89 1011.0
20260509084148 36 172 0.0 1.0 0.00 0.00 0.00 89 1010.9
20260509083646 36 102 1.0 3.0 0.00 0.00 0.00 89 1011.2
20260509083142 36 89 2.0 3.0 0.00 0.00 0.00 89 1011.1
20260509082640 36 186 0.0 2.0 0.00 0.00 0.00 89 1011.1
20260509082136 36 147 0.0 3.0 0.00 0.00 0.00 89 1011.1
20260509081633 36 123 2.0 3.0 0.00 0.00 0.00 89 1011.3
20260509081131 36 162 2.0 3.0 0.00 0.00 0.00 89 1011.0
20260509080629 36 149 1.0 3.0 0.00 0.00 0.00 89 1011.0
20260509080126 36 150 0.0 3.0 0.00 0.00 0.00 89 1011.3
20260509075624 35 166 2.0 3.0 0.00 0.00 0.00 89 1011.2
20260509075122 35 133 1.0 2.0 0.00 0.00 0.00 89 1011.1
20260509074618 35 174 0.0 2.0 0.00 0.00 0.00 89 1010.9
20260509074115 35 127 2.0 3.0 0.00 0.00 0.00 88 1011.1
20260509073612 35 164 0.0 3.0 0.00 0.00 0.00 88 1011.0
20260509073108 35 163 2.0 3.0 0.00 0.00 0.00 88 1011.1
20260509072605 35 164 1.0 3.0 0.00 0.00 0.00 88 1011.3
20260509072101 35 146 2.0 2.0 0.00 0.00 0.00 88 1011.3
20260509071558 36 165 1.0 2.0 0.00 0.00 0.00 88 1011.1
20260509071055 36 131 1.0 3.0 0.00 0.00 0.00 88 1011.2
20260509070553 36 119 1.0 2.0 0.00 0.00 0.00 88 1011.0
20260509070043 36 162 1.0 3.0 0.00 0.00 0.00 88 1011.2
20260509065538 36 179 1.0 3.0 0.00 0.00 0.00 88 1011.1
20260509065030 36 131 0.0 3.0 0.00 0.00 0.00 88 1011.2
20260509064527 36 155 0.0 3.0 0.00 0.00 0.00 88 1011.2
20260509064025 35 204 2.0 2.0 0.00 0.00 0.00 89 1011.3
20260509063525 35 168 2.0 3.0 0.00 0.00 0.00 89 1011.3
20260509063023 35 143 1.0 3.0 0.00 0.00 0.00 88 1011.3
20260509062520 35 155 1.0 3.0 0.00 0.00 0.00 88 1011.5
20260509062018 35 148 2.0 3.0 0.00 0.00 0.00 88 1011.6
20260509061515 36 167 2.0 4.0 0.00 0.00 0.00 88 1011.6
20260509061012 35 170 2.0 3.0 0.00 0.00 0.00 87 1011.6
20260509060509 36 159 2.0 3.0 0.00 0.00 0.00 87 1011.6
20260509060005 36 157 1.0 2.0 0.00 0.00 0.00 87 1011.9
20260509055500 36 174 1.0 2.0 0.00 0.00 0.00 87 1011.8
20260509054957 37 119 2.0 3.0 0.00 0.00 0.00 87 1011.9
20260509054453 37 122 0.0 3.0 0.00 0.00 0.00 87 1012.0
20260509053952 37 218 0.0 2.0 0.00 0.00 0.00 87 1011.7
20260509053449 37 130 0.0 2.0 0.00 0.00 0.00 87 1012.0
20260509052947 37 149 0.0 2.0 0.00 0.00 0.00 87 1012.0
20260509052444 37 116 1.0 2.0 0.00 0.00 0.00 88 1012.1
20260509051942 38 119 0.0 2.0 0.00 0.00 0.00 88 1012.2
20260509051439 38 113 2.0 3.0 0.00 0.00 0.00 88 1012.1
20260509050936 38 131 0.0 3.0 0.00 0.00 0.00 88 1012.2
20260509050433 38 183 0.0 2.0 0.00 0.00 0.00 88 1012.1
20260509045929 38 178 0.0 3.0 0.00 0.00 0.00 89 1012.2
20260509045427 38 151 0.0 2.0 0.00 0.00 0.00 89 1012.4
20260509044923 37 206 0.0 3.0 0.00 0.00 0.00 89 1012.4
20260509044421 37 196 0.0 2.0 0.00 0.00 0.00 89 1012.2
20260509043919 37 156 0.0 2.0 0.00 0.00 0.00 89 1012.3
20260509043414 37 95 0.0 2.0 0.00 0.00 0.00 89 1012.4
20260509042910 37 168 1.0 3.0 0.00 0.00 0.00 89 1012.4
20260509042407 37 120 0.0 2.0 0.00 0.00 0.00 89 1012.3
20260509041903 37 168 0.0 2.0 0.00 0.00 0.00 89 1012.2
20260509041401 37 141 2.0 3.0 0.00 0.00 0.00 89 1012.3
20260509040858 36 183 2.0 3.0 0.00 0.00 0.00 89 1012.3
20260509040356 36 169 2.0 3.0 0.00 0.00 0.00 89 1012.1
20260509035853 36 177 2.0 3.0 0.00 0.06 0.06 89 1012.1
20260509035349 36 171 1.0 2.0 0.00 0.06 0.06 89 1012.1
20260509034846 35 167 0.0 3.0 0.00 0.06 0.06 89 1012.1
20260509034338 35 178 2.0 3.0 0.00 0.06 0.06 89 1012.2
20260509033834 35 162 1.0 2.0 0.00 0.06 0.06 89 1012.1